Volver al catálogo

ICEYE-X41

ActivoCienciaSSO
NORAD 62700·PAYLOAD·🇺🇸 United States

Lanzado Jan 14, 2025 desde Vandenberg Space Force Base

Loading…

Próximos Pases (próximas 24 horas)

TLE

ActualizadoSource: Space-Track

Época: Sep 14, 2026, 04:05 UTC

1 62700U 25009CV  26257.17061332  .00003043  00000-0  26801-3 0  9996
2 62700  97.7015 335.4028 0003407  92.4434 267.7178 14.97211657 90720

Sigue ICEYE-X41 en tiempo real con AllMySat

Download on the App Store